www.pogodaiklimat.ru

Погода и климат >> Архив погоды >> Финляндия >> Логнес Харбор


ПОГОДА в Логнес Харбор

  • Прогноз погоды в Логнес Харбор
  • Монитор погоды в Логнес Харбор

АРХИВ ПОГОДЫ в Логнес Харбор

Время (UTC), дата Ветер
(напр.,м/с)
 
Видим.   Явления Облачность Т
(С)
Тd
(С)
f
(%)
Тe
(С)
Тes
(С)
Комфортность P
(гПа)
Po
(гПа)
Тmin
(С)
Tmax
(С)
R
(мм)
R24
(мм)
S
(см)
21 10.06 ЮЗ 2 н/о н/о +13.4 +9.2 76 +13 +13 1020.6 1019.0
00 11.06 Ю 2 н/о н/о +11.0 +9.1 88 +10 +10 1021.1 1019.6
03 11.06 З 1 н/о н/о +12.1 +10.1 88 +12 +12 1021.6 1020.1
06 11.06 Ю 1 н/о н/о +16.0 +10.4 69 +17 +17 1022.0 1020.5 +10.0 +16.8
09 11.06 СВ 4 н/о н/о +17.4 +10.6 64 +17 +17 1022.9 1021.4
12 11.06 С 8 н/о н/о +15.9 +10.5 70 +14 +14 1023.7 1022.2
15 11.06 С 7 н/о н/о +15.4 +7.4 59 +14 +14 1023.1 1021.6
18 11.06 С 9 н/о н/о +13.7 +8.4 70 +11 +11 1022.8 1021.3 +13.6 +18.7
21 11.06 С 7 н/о н/о +13.9 +9.8 76 +12 +12 1022.6 1021.1
00 12.06 С 5 н/о н/о +13.8 +7.4 65 +12 +12 1023.7 1022.2
03 12.06 СВ 8 н/о н/о +12.4 +5.2 61 +10 +10 1024.1 1022.6
06 12.06 СВ 7 н/о н/о +12.8 +5.6 62 +10 +10 1024.7 1023.2 +12.0 +15.2
09 12.06 СВ 5 н/о н/о +13.3 +7.3 67 +11 +11 1025.7 1024.1
12 12.06 СВ 5 н/о н/о +15.3 +8.4 63 +14 +14 1024.5 1023.0
15 12.06 СВ 5 н/о н/о +15.9 +9.7 67 +15 +15 1022.6 1021.1
18 12.06 В 5 н/о н/о +14.7 +8.7 67 +13 +13 1022.4 1020.9 +12.5 +16.8
21 12.06 В 10 н/о н/о +14.3 +7.8 65 +12 +12 1021.0 1019.5
00 13.06 В 7 н/о н/о +13.2 +8.3 72 +11 +11 1019.8 1018.3
03 13.06 В 15 н/о н/о +11.7 +9.4 86 +7 +7 1015.8 1014.3
06 13.06 ЮВ 11 н/о н/о +13.5 +10.9 84 +10 +10 1015.7 1014.2 +11.4 +14.7 5
09 13.06 ЮВ 8 н/о н/о +14.2 +12.1 87 +12 +12 1015.7 1014.2
12 13.06 Ю 5 н/о н/о +13.1 +12.7 97 +11 +11 1016.1 1014.6
15 13.06 ЮВ 9 н/о н/о +14.5 +13.4 93 +12 +12 1013.9 1012.4
18 13.06 ЮВ 7 н/о н/о +15.1 +13.5 90 +13 +13 1013.7 1012.2 +12.7 +15.9 5
21 13.06 ЮВ 6 н/о н/о +13.7 +13.0 96 +11 +11 1014.4 1012.9
00 14.06 СВ 1 н/о н/о +12.7 +12.5 99 +13 +13 1013.7 1012.2
03 14.06 СЗ 2 н/о н/о +13.4 +13.3 99 +13 +13 1014.0 1012.5
06 14.06 З 3 н/о н/о +14.2 +14.1 99 +13 +13 1014.7 1013.2 +12.6 +15.1
09 14.06 СЗ 5 н/о н/о +14.1 +12.2 88 +12 +12 1016.3 1014.8
12 14.06 СЗ 7 н/о н/о +12.9 +11.4 91 +10 +10 1017.8 1016.3
15 14.06 СЗ 6 н/о н/о +12.7 +11.1 90 +10 +10 1018.7 1017.2
18 14.06 СЗ 5 н/о н/о +14.1 +11.1 82 +12 +12 1018.7 1017.2 +12.1 +14.7
21 14.06 ЮЗ 3 н/о н/о +11.4 +10.8 96 +9 +9 1019.5 1018.0
00 15.06 ЮЗ 3 н/о н/о +10.3 +10.1 99 +8 +8 1019.0 1017.5
03 15.06 З 5 н/о н/о +13.2 +11.6 90 +11 +11 1017.6 1016.1
06 15.06 СЗ 5 н/о н/о +17.7 +12.6 72 +17 +17 1017.5 1016.0 +9.8 +17.8
09 15.06 СЗ 4 н/о н/о +20.3 +13.2 64 +23 +23 комфорт 1018.0 1016.5
12 15.06 С 5 н/о н/о +22.9 +8.9 41 +24 +24 комфорт 1017.8 1016.4
15 15.06 В 3 н/о н/о +18.6 +13.4 72 +19 +19 1017.9 1016.5
18 15.06 ЮЗ 4 н/о н/о +16.2 +12.3 78 +15 +15 1017.1 1015.6 +16.2 +23.3
21 15.06 В 1 н/о н/о +13.5 +12.6 94 +14 +14 1016.3 1014.8
00 16.06 СВ 2 н/о н/о +12.4 +11.9 97 +11 +11 1016.5 1015.0
03 16.06 С 2 н/о н/о +12.0 +11.7 98 +11 +11 1015.8 1014.3
06 16.06 СВ 1 н/о н/о +14.5 +13.0 91 +15 +15 1015.7 1014.2 +11.6 +16.3
09 16.06 В 1 н/о н/о +17.5 +13.5 77 +19 +19 1015.9 1014.4
12 16.06 С 1 н/о н/о +21.3 +14.2 64 +24 +24 комфорт 1015.3 1013.9
15 16.06 СВ 2 н/о н/о +19.4 +13.0 66 +21 +21 комфорт 1014.8 1013.3
18 16.06 ЮЗ 3 н/о н/о +19.8 +10.1 54 +21 +21 комфорт 1014.3 1012.9 +14.5 +22.4
21 16.06 ЮЗ 2 н/о н/о +17.3 +9.8 61 +18 +18 1013.9 1012.4
00 17.06 З 3 н/о н/о +16.9 +10.1 64 +17 +17 1013.7 1012.2
03 17.06 З 5 н/о н/о +16.4 +11.9 75 +15 +15 1013.5 1012.0
06 17.06 З 5 н/о н/о +18.3 +14.6 79 +18 +18 1013.6 1012.1 +16.3 +19.8
09 17.06 З 4 н/о н/о +20.6 +11.1 54 +23 +23 комфорт 1013.9 1012.4
12 17.06 ЮЗ 4 н/о н/о +22.3 +7.2 38 +23 +23 комфорт 1013.8 1012.4
15 17.06 З 6 н/о н/о +22.7 +7.6 38 +24 +24 комфорт 1013.2 1011.8
18 17.06 З 3 н/о н/о +20.7 +10.0 50 +23 +23 комфорт 1012.8 1011.3 +18.2 +23.3

 

Местоположение метеостанции Логнес Харбор (Финляндия): широта 60.12 долгота 20.30 высота над уровнем моря 13 м.

В архиве по умолчанию представлена погода в Логнес Харбор за последнюю неделю. Архивные данные за месяц целиком и за предыдущие месяцы, начиная с января 2011 года, Вы можете получить, выбрав интересующий диапазон дат из раскрывающегося списка и нажав кнопку "Ввод!".


*Определитесь, кто Вы:
робот инопланетянин человек

Внимание! Время в таблицах - всемирное. Для получения местного времени необходимо прибавить поправку, которая равна 1 ч.

Смотрите также архив погоды в соседних городах и на ближайших метеорологических станциях:

Погода в Йомале (Финляндия) (18 км)
Погода в Йомала аэропорту (Финляндия) (22 км)
Погода в Лемланд Нихамн (Финляндия) (26 км)
Погода в Кумлинге (Финляндия) (29 км)
Погода в Содерарме (Швеция) (64 км)
Погода на Хаммарланде (Финляндия) (68 км)
Погода в Кокар Богскар (Финляндия) (68 км)
Погода на Острове Уто (Финляндия) (71 км)
Погода на Острове Фагерхольм (Финляндия) (78 км)
Погода в Кустави Исокари (Финляндия) (78 км)

Пояснения к столбцам:

Ветер - указаны скорость ветра в м/с - средняя за 10 мин, порывы в срок и между сроками (в фигурных скобках) и направление, откуда дует ветер: С - северный, СВ - северо-восточный, В - восточный, ЮВ - юго-восточный, Ю - южный, ЮЗ - юго-западный, З - западный, СЗ - северо-западный.
Видимость - горизонтальная дальность видимости в метрах или километрах. При видимости от 1 до 10 км при отсутствии осадков обычно наблюдается дымка, при ухудшении видимости до 1 км и менее - туман. В сухую погоду видимость может ухудшаться дымом, пылью или мглою.
Явления - указаны атмосферные явления, наблюдавшиеся в срок или в последний час перед сроком; фигурными скобками обозначены явления, наблюдавшиеся между сроками (за 1-3 часа до срока); квадратными скобками обозначены град или гололедные отложения с указанием их диаметра в мм.
Облачность - указаны через наклонную черту общая и нижняя облачность в баллах и высота нижней границы облаков в метрах; квадратными скобками обозначены формы облаков: Ci - перистые, Cs - перисто-слоистые, Cc - перисто-кучевые, Ac - высококучевые, As - высокослоистые, Sc - слоисто-кучевые, Ns - слоисто-дождевые, Cu - кучевые, Cb - кучево-дождевые. Подробнее классификацию облаков см. в Атласе облаков (PDF).
T - Температура воздуха - температура, измеренная на высоте 2 м над землей.
Td - Температура точки росы - температура, при понижении до которой содержащийся в воздухе водяной пар достигнет насыщения.
f - Относительная влажность воздуха - влажноcть воздуха, измеренная на высоте 2 м над землей.
Te - Эффективная температура - температура, которую ощущает одетый по сезону человек в тени. Характеристика душности погоды. При расчете учитывается влияние влажности воздуха и скорости ветра на теплоощущения человека.
Tes - Эффективная температура на солнце - температура, которую ощущает человек, с поправкой на солнечный нагрев. Характеристика знойности погоды. Зависит от высоты солнца над горизонтом, облачности и скорости ветра. Ночью, в пасмурную погоду, а также при ветре 12 м/с и более поправка равна нулю.
P - Атмосферное давление - приведенное к уровню моря атмосферное давление.
Po - Атмосферное давление - измеренное на уровне метеостанции атмосферное давление.
Tmin - Минимальная температура - минимум температуры воздуха на высоте 2 м над землей.
Tmax - Максимальная температура - максимум температуры воздуха на высоте 2 м над землей.
R - Количество осадков - Количество выпавших осадков за период времени, мм. При наведении курсора мыши на число - период времени, за который выпало указанное количество осадков.
R24 - Количество осадков - Количество выпавших осадков за 24 часа, мм.
S - Снежный покров - Высота снежного покрова, см. При наведении курсора мыши на число - состояние снежного покрова и степень покрытия местности в баллах.